When you browse on this site, cookies collect data to enhance your experience and personalize the content and advertising you see.
Visit our Privacy Policy to learn more. By continuing to use the site, you agree to this use of cookies and data.
  • In Romania
  • List of Countries
  • For 7 days
  • Water Temperature
  • Satellite Maps
  • Weather Map
  • Weather Widgets
  • user-avatar
    Login

    Hourly Weather Galata

    Today, 27 June, Thursday

    Time Temperature Precipitation Wind Pressure Humidity
    00:00 +22°C° 0 mm 3 mps 758 mmHg 88%
    01:00 +21°C° 0 mm 3 mps 758 mmHg 88%
    02:00 +21°C° 0 mm 3 mps 758 mmHg 88%
    03:00 +21°C° 0 mm 3 mps 758 mmHg 88%
    04:00 +21°C° 0 mm 2 mps 757 mmHg 88%
    05:00 +21°C° 0 mm 2 mps 757 mmHg 88%
    06:00 +24°C° 0 mm 2 mps 757 mmHg 79%
    07:00 +25°C° 0 mm 2 mps 757 mmHg 71%
    08:00 +27°C° 0 mm 2 mps 757 mmHg 63%
    09:00 +29°C° 0 mm 2 mps 757 mmHg 56%
    10:00 +30°C° 0 mm 2 mps 756 mmHg 49%
    11:00 +31°C° 0 mm 2 mps 756 mmHg 42%
    12:00 +32°C° 0 mm 2 mps 756 mmHg 40%
    13:00 +34°C° 0 mm 2 mps 755 mmHg 38%
    14:00 +34°C° 0 mm 2 mps 755 mmHg 37%
    15:00 +34°C° 0 mm 3 mps 754 mmHg 40%
    16:00 +34°C° 0 mm 3 mps 754 mmHg 43%
    17:00 +33°C° 0 mm 4 mps 753 mmHg 46%
    18:00 +30°C° 0 mm 3 mps 753 mmHg 54%
    19:00 +28°C° 0 mm 3 mps 752 mmHg 62%
    20:00 +26°C° 0 mm 3 mps 752 mmHg 71%
    21:00 +25°C° 0 mm 2 mps 752 mmHg 72%
    22:00 +25°C° 0 mm 2 mps 752 mmHg 73%
    23:00 +24°C° 0 mm 2 mps 751 mmHg 74%

    Tomorrow, 28 June, Friday

    Time Temperature Precipitation Wind Pressure Humidity
    00:00 +24°C° 0 mm 3 mps 751 mmHg 74%
    01:00 +24°C° 0 mm 3 mps 751 mmHg 73%
    02:00 +23°C° 0 mm 4 mps 751 mmHg 73%
    03:00 +22°C° 0 mm 4 mps 751 mmHg 78%
    04:00 +22°C° 0 mm 4 mps 751 mmHg 84%
    05:00 +21°C° 0 mm 4 mps 750 mmHg 89%
    06:00 +23°C° 0 mm 4 mps 751 mmHg 78%
    07:00 +25°C° 0 mm 5 mps 751 mmHg 68%
    08:00 +27°C° 0 mm 6 mps 751 mmHg 58%
    09:00 +27°C° 0.1 mm 6 mps 751 mmHg 58%
    10:00 +27°C° 0.1 mm 6 mps 751 mmHg 58%
    11:00 +26°C° 0.1 mm 6 mps 752 mmHg 58%
    12:00 +26°C° 0.2 mm 5 mps 752 mmHg 59%
    13:00 +26°C° 0.2 mm 5 mps 752 mmHg 61%
    14:00 +26°C° 0.2 mm 5 mps 752 mmHg 62%
    15:00 +26°C° 0 mm 5 mps 752 mmHg 60%
    16:00 +26°C° 0 mm 4 mps 752 mmHg 58%
    17:00 +26°C° 0 mm 4 mps 752 mmHg 57%
    18:00 +25°C° 0 mm 4 mps 752 mmHg 60%
    19:00 +23°C° 0 mm 4 mps 753 mmHg 63%
    20:00 +22°C° 0 mm 4 mps 753 mmHg 66%
    21:00 +22°C° 0 mm 5 mps 754 mmHg 61%
    22:00 +21°C° 0 mm 6 mps 754 mmHg 57%
    23:00 +20°C° 0 mm 7 mps 754 mmHg 52%

    Day after tomorrow, 29 June, Saturday

    Time Temperature Precipitation Wind Pressure Humidity
    00:00 +20°C° 0 mm 8 mps 755 mmHg 53%
    01:00 +20°C° 0 mm 8 mps 755 mmHg 55%
    02:00 +18°C° 0 mm 8 mps 755 mmHg 56%
    03:00 +18°C° 0 mm 7 mps 755 mmHg 57%
    04:00 +17°C° 0 mm 6 mps 755 mmHg 58%
    05:00 +17°C° 0 mm 5 mps 755 mmHg 58%
    06:00 +17°C° 0 mm 5 mps 755 mmHg 57%
    07:00 +19°C° 0 mm 6 mps 756 mmHg 55%
    08:00 +20°C° 0 mm 6 mps 756 mmHg 53%
    09:00 +22°C° 0 mm 6 mps 756 mmHg 48%
    10:00 +23°C° 0 mm 6 mps 756 mmHg 44%
    11:00 +24°C° 0 mm 6 mps 756 mmHg 40%
    12:00 +26°C° 0 mm 6 mps 756 mmHg 39%
    13:00 +26°C° 0 mm 6 mps 756 mmHg 37%
    14:00 +27°C° 0 mm 7 mps 756 mmHg 36%
    15:00 +26°C° 0 mm 6 mps 756 mmHg 37%
    16:00 +26°C° 0 mm 6 mps 756 mmHg 39%
    17:00 +26°C° 0 mm 6 mps 756 mmHg 41%
    18:00 +23°C° 0 mm 5 mps 756 mmHg 48%
    19:00 +21°C° 0 mm 4 mps 756 mmHg 55%
    20:00 +20°C° 0 mm 3 mps 756 mmHg 63%
    21:00 +20°C° 0 mm 3 mps 756 mmHg 61%
    22:00 +20°C° 0 mm 3 mps 757 mmHg 60%
    23:00 +19°C° 0 mm 3 mps 757 mmHg 59%

    30 June, Sunday

    Time Temperature Precipitation Wind Pressure Humidity
    00:00 +19°C° 0 mm 4 mps 757 mmHg 64%
    01:00 +18°C° 0 mm 4 mps 757 mmHg 69%
    02:00 +17°C° 0 mm 4 mps 757 mmHg 74%
    03:00 +15°C° 0 mm 4 mps 757 mmHg 76%
    04:00 +15°C° 0 mm 5 mps 757 mmHg 77%
    05:00 +15°C° 0 mm 5 mps 757 mmHg 78%
    06:00 +16°C° 0 mm 6 mps 757 mmHg 70%
    07:00 +18°C° 0 mm 8 mps 758 mmHg 62%
    08:00 +21°C° 0 mm 9 mps 758 mmHg 54%
    09:00 +23°C° 0 mm 8 mps 758 mmHg 51%
    10:00 +24°C° 0 mm 8 mps 758 mmHg 48%
    11:00 +26°C° 0 mm 8 mps 759 mmHg 45%
    12:00 +27°C° 0 mm 7 mps 758 mmHg 43%
    13:00 +27°C° 0 mm 6 mps 758 mmHg 42%
    14:00 +28°C° 0 mm 6 mps 758 mmHg 41%
    15:00 +27°C° 0 mm 5 mps 758 mmHg 43%
    16:00 +27°C° 0 mm 4 mps 758 mmHg 45%
    17:00 +26°C° 0 mm 3 mps 758 mmHg 47%
    18:00 +25°C° 0 mm 3 mps 758 mmHg 52%
    19:00 +24°C° 0 mm 2 mps 758 mmHg 57%
    20:00 +21°C° 0 mm 2 mps 758 mmHg 62%
    21:00 +21°C° 0 mm 2 mps 758 mmHg 63%
    22:00 +20°C° 0 mm 3 mps 759 mmHg 65%
    23:00 +20°C° 0 mm 3 mps 759 mmHg 66%

    1 July, Monday

    Time Temperature Precipitation Wind Pressure Humidity
    00:00 +20°C° 0 mm 3 mps 759 mmHg 64%
    01:00 +20°C° 0 mm 3 mps 758 mmHg 63%
    02:00 +20°C° 0 mm 3 mps 758 mmHg 61%
    03:00 +20°C° 0 mm 4 mps 758 mmHg 63%
    04:00 +19°C° 0 mm 4 mps 758 mmHg 65%
    05:00 +19°C° 0 mm 5 mps 758 mmHg 67%
    06:00 +21°C° 0 mm 4 mps 758 mmHg 63%
    07:00 +23°C° 0 mm 4 mps 758 mmHg 58%
    08:00 +26°C° 0 mm 3 mps 758 mmHg 54%
    09:00 +27°C° 0 mm 3 mps 758 mmHg 50%
    10:00 +28°C° 0 mm 3 mps 759 mmHg 46%
    11:00 +30°C° 0 mm 2 mps 759 mmHg 42%
    12:00 +30°C° 0 mm 3 mps 758 mmHg 42%
    13:00 +31°C° 0 mm 3 mps 758 mmHg 43%
    14:00 +31°C° 0 mm 3 mps 758 mmHg 43%
    15:00 +30°C° 0 mm 3 mps 758 mmHg 46%
    16:00 +30°C° 0 mm 3 mps 757 mmHg 49%
    17:00 +29°C° 0 mm 3 mps 757 mmHg 52%
    18:00 +27°C° 0 mm 3 mps 757 mmHg 60%
    19:00 +25°C° 0 mm 2 mps 757 mmHg 67%
    20:00 +24°C° 0 mm 2 mps 757 mmHg 74%
    21:00 +23°C° 0 mm 2 mps 757 mmHg 77%
    22:00 +21°C° 0 mm 2 mps 757 mmHg 79%
    23:00 +21°C° 0 mm 2 mps 757 mmHg 82%

    2 July, Tuesday

    Time Temperature Precipitation Wind Pressure Humidity
    00:00 +21°C° 0 mm 1 mps 757 mmHg 82%
    01:00 +21°C° 0 mm 1 mps 756 mmHg 82%
    02:00 +21°C° 0 mm 1 mps 756 mmHg 82%
    03:00 +21°C° 0 mm 1 mps 756 mmHg 81%
    04:00 +21°C° 0 mm 1 mps 756 mmHg 81%
    05:00 +20°C° 0 mm 1 mps 756 mmHg 80%
    06:00 +23°C° 0 mm 1 mps 756 mmHg 71%
    07:00 +25°C° 0 mm 1 mps 756 mmHg 62%
    08:00 +28°C° 0 mm 1 mps 756 mmHg 53%
    09:00 +29°C° 0 mm 2 mps 755 mmHg 47%
    10:00 +31°C° 0 mm 3 mps 755 mmHg 42%
    11:00 +34°C° 0 mm 3 mps 755 mmHg 36%
    12:00 +34°C° 0 mm 3 mps 755 mmHg 36%
    13:00 +34°C° 0 mm 4 mps 755 mmHg 37%
    14:00 +34°C° 0 mm 4 mps 754 mmHg 38%
    15:00 +33°C° 0 mm 4 mps 754 mmHg 41%
    16:00 +33°C° 0 mm 4 mps 754 mmHg 44%
    17:00 +32°C° 0 mm 4 mps 754 mmHg 46%
    18:00 +28°C° 0 mm 3 mps 753 mmHg 56%
    19:00 +26°C° 0 mm 3 mps 753 mmHg 66%
    20:00 +24°C° 0 mm 2 mps 753 mmHg 76%
    21:00 +23°C° 0 mm 2 mps 753 mmHg 77%
    22:00 +23°C° 0 mm 2 mps 753 mmHg 79%
    23:00 +21°C° 0 mm 2 mps 753 mmHg 81%
    Show more